Location: Buena Vista
(37.7110°N, 119.7938°W)
Time: 18:27:46
(UTC+00:00)

Envisat - Pass Details

Date: 16 August 2024
Orbit: 762 x 764 km, 98.3° (Epoch: 11 September)

Event Time Altitude Azimuth Distance (km) Brightness Sun altitude
Rises 11:24:12 0° 9° (N) 3,233 6.9 -20.5°
Reaches altitude 10° 11:26:31 10° 7° (N) 2,303 6.0 -20.1°
Maximum altitude 11:31:32 66° 286° (WNW) 832 3.0 -19.3°
Enters shadow 11:33:38 35° 216° (SW) 1,222 3.5 -19.0°
